| time (UTC) | temp F | wind direction | speed knots | gust knots | rain 1hr in | rain 24hr in | rain mn in | humidity % | barometer mb |
| 20260506153155 | 53 | 243 | 0.0 | 0.0 | 0.00 | 0.60 | 0.60 | 69 | 1003.9 |
| 20260506152652 | 53 | 318 | 2.6 | 2.6 | 0.00 | 0.60 | 0.60 | 71 | 1003.9 |
| 20260506152149 | 52 | 266 | 2.6 | 2.6 | 0.00 | 0.60 | 0.60 | 69 | 1003.9 |
| 20260506151648 | 52 | 295 | 1.7 | 2.6 | 0.00 | 0.60 | 0.60 | 70 | 1004.0 |
| 20260506151144 | 52 | 260 | 2.6 | 4.3 | 0.00 | 0.60 | 0.60 | 69 | 1004.0 |
| 20260506150641 | 51 | 268 | 0.9 | 1.7 | 0.00 | 0.60 | 0.60 | 73 | 1004.0 |
| 20260506150138 | 51 | 269 | 1.7 | 1.7 | 0.00 | 0.60 | 0.60 | 73 | 1003.7 |
| 20260506145635 | 51 | 248 | 0.0 | 0.9 | 0.00 | 0.60 | 0.60 | 73 | 1003.5 |
| 20260506145132 | 51 | 298 | 3.5 | 5.2 | 0.00 | 0.60 | 0.60 | 76 | 1003.4 |
| 20260506144630 | 50 | 325 | 3.5 | 5.2 | 0.00 | 0.60 | 0.60 | 75 | 1003.3 |
| 20260506144126 | 50 | 257 | 2.6 | 2.6 | 0.00 | 0.60 | 0.60 | 78 | 1003.5 |
| 20260506143624 | 50 | 246 | 4.3 | 5.2 | 0.00 | 0.60 | 0.60 | 76 | 1003.5 |
| 20260506143122 | 49 | 273 | 1.7 | 2.6 | 0.00 | 0.60 | 0.60 | 79 | 1003.5 |
| 20260506142620 | 49 | 284 | 2.6 | 2.6 | 0.00 | 0.60 | 0.60 | 79 | 1003.6 |
| 20260506142118 | 49 | 230 | 0.9 | 0.9 | 0.00 | 0.60 | 0.60 | 82 | 1003.4 |
| 20260506141615 | 48 | 261 | 1.7 | 1.7 | 0.00 | 0.60 | 0.60 | 83 | 1003.4 |
| 20260506141113 | 48 | 313 | 3.5 | 4.3 | 0.00 | 0.60 | 0.60 | 83 | 1003.2 |
| 20260506140610 | 48 | 249 | 0.9 | 0.9 | 0.00 | 0.60 | 0.60 | 83 | 1003.2 |
| 20260506140107 | 47 | 259 | 0.9 | 1.7 | 0.00 | 0.60 | 0.60 | 85 | 1003.0 |
| 20260506135604 | 47 | 246 | 0.0 | 0.9 | 0.00 | 0.60 | 0.60 | 86 | 1003.3 |
| 20260506135100 | 47 | 243 | 0.9 | 1.7 | 0.00 | 0.60 | 0.60 | 88 | 1003.3 |
| 20260506134557 | 47 | 244 | 0.0 | 0.9 | 0.00 | 0.60 | 0.60 | 89 | 1003.3 |
| 20260506134053 | 46 | 258 | 0.9 | 1.7 | 0.00 | 0.60 | 0.60 | 89 | 1003.2 |
| 20260506133550 | 46 | 236 | 0.9 | 0.9 | 0.00 | 0.60 | 0.60 | 90 | 1003.2 |
| 20260506133047 | 46 | 258 | 1.7 | 1.7 | 0.00 | 0.60 | 0.60 | 91 | 1003.0 |
| 20260506132544 | 46 | 233 | 0.9 | 0.9 | 0.00 | 0.60 | 0.60 | 91 | 1003.1 |
| 20260506132042 | 46 | 243 | 0.0 | 0.0 | 0.00 | 0.60 | 0.60 | 92 | 1003.0 |
| 20260506131539 | 46 | 249 | 0.9 | 0.9 | 0.00 | 0.60 | 0.60 | 92 | 1003.1 |
| 20260506131035 | 46 | 245 | 0.0 | 0.0 | 0.00 | 0.60 | 0.60 | 92 | 1003.0 |
| 20260506130532 | 46 | 247 | 0.9 | 0.9 | 0.00 | 0.60 | 0.60 | 93 | 1002.5 |
| 20260506130029 | 46 | 242 | 0.0 | 0.0 | 0.00 | 0.60 | 0.60 | 93 | 1002.5 |
| 20260506125528 | 46 | 242 | 0.0 | 0.9 | 0.00 | 0.60 | 0.60 | 93 | 1002.4 |
| 20260506125025 | 45 | 259 | 0.9 | 0.9 | 0.00 | 0.60 | 0.60 | 93 | 1002.4 |
| 20260506124523 | 45 | 241 | 0.0 | 0.9 | 0.00 | 0.60 | 0.60 | 94 | 1002.3 |
| 20260506124020 | 44 | 248 | 0.9 | 0.9 | 0.00 | 0.60 | 0.60 | 94 | 1002.3 |
| 20260506123518 | 44 | 253 | 0.9 | 0.9 | 0.00 | 0.60 | 0.60 | 95 | 1002.1 |
| 20260506123016 | 44 | 244 | 0.0 | 0.9 | 0.00 | 0.60 | 0.60 | 96 | 1001.9 |
| 20260506122512 | 44 | 259 | 1.7 | 1.7 | 0.00 | 0.60 | 0.60 | 96 | 1002.2 |
| 20260506122011 | 44 | 249 | 0.0 | 0.0 | 0.00 | 0.60 | 0.60 | 97 | 1002.0 |
| 20260506121508 | 44 | 281 | 1.7 | 1.7 | 0.00 | 0.60 | 0.60 | 97 | 1001.7 |
| 20260506121004 | 45 | 244 | 0.0 | 0.0 | 0.00 | 0.60 | 0.60 | 97 | 1001.6 |
| 20260506120502 | 45 | 240 | 0.0 | 0.0 | 0.00 | 0.60 | 0.60 | 97 | 1001.6 |
| 20260506115959 | 44 | 240 | 0.0 | 0.0 | 0.00 | 0.60 | 0.60 | 97 | 1001.7 |
| 20260506115457 | 44 | 254 | 0.9 | 0.9 | 0.00 | 0.60 | 0.60 | 97 | 1001.3 |
| 20260506114955 | 44 | 244 | 0.9 | 0.9 | 0.00 | 0.60 | 0.60 | 97 | 1001.5 |
| 20260506114452 | 44 | 293 | 0.9 | 1.7 | 0.00 | 0.60 | 0.60 | 97 | 1001.4 |
| 20260506113951 | 44 | 274 | 2.6 | 2.6 | 0.00 | 0.60 | 0.60 | 98 | 1001.7 |
| 20260506113448 | 44 | 274 | 1.7 | 2.6 | 0.00 | 0.60 | 0.60 | 98 | 1001.4 |
| 20260506112944 | 44 | 256 | 1.7 | 2.6 | 0.00 | 0.60 | 0.60 | 98 | 1001.5 |
| 20260506112442 | 44 | 243 | 0.9 | 0.9 | 0.00 | 0.60 | 0.60 | 98 | 1001.8 |
| 20260506111939 | 44 | 250 | 0.9 | 0.9 | 0.00 | 0.60 | 0.60 | 98 | 1001.8 |
| 20260506111437 | 44 | 260 | 0.9 | 0.9 | 0.00 | 0.60 | 0.60 | 98 | 1001.7 |
| 20260506110934 | 44 | 241 | 0.9 | 0.9 | 0.00 | 0.60 | 0.60 | 98 | 1001.5 |
| 20260506110432 | 44 | 244 | 0.0 | 0.0 | 0.00 | 0.60 | 0.60 | 98 | 1001.1 |
| 20260506105928 | 44 | 241 | 0.0 | 0.0 | 0.00 | 0.60 | 0.60 | 98 | 1000.9 |
| 20260506105424 | 44 | 243 | 0.0 | 0.9 | 0.00 | 0.60 | 0.60 | 98 | 1001.3 |
| 20260506104922 | 44 | 250 | 0.0 | 0.0 | 0.00 | 0.60 | 0.60 | 98 | 1000.9 |
| 20260506104420 | 44 | 240 | 0.0 | 0.0 | 0.00 | 0.60 | 0.60 | 98 | 1001.4 |
| 20260506103918 | 44 | 249 | 0.9 | 0.9 | 0.00 | 0.60 | 0.60 | 98 | 1001.5 |
| 20260506103415 | 44 | 246 | 0.9 | 0.9 | 0.00 | 0.60 | 0.60 | 98 | 1001.0 |
| 20260506102912 | 44 | 277 | 0.9 | 0.9 | 0.00 | 0.60 | 0.60 | 98 | 1000.3 |
| 20260506102410 | 44 | 247 | 0.9 | 0.9 | 0.00 | 0.60 | 0.60 | 98 | 1000.7 |
| 20260506101907 | 44 | 246 | 0.9 | 0.9 | 0.00 | 0.60 | 0.60 | 98 | 1000.3 |
| 20260506101403 | 44 | 249 | 0.9 | 0.9 | 0.00 | 0.60 | 0.60 | 98 | 1000.0 |
| 20260506100900 | 44 | 241 | 0.9 | 0.9 | 0.00 | 0.60 | 0.60 | 98 | 999.6 |
| 20260506100359 | 44 | 258 | 1.7 | 1.7 | 0.00 | 0.60 | 0.60 | 98 | 999.5 |
| 20260506095856 | 44 | 244 | 0.0 | 0.0 | 0.00 | 0.60 | 0.60 | 98 | 1000.0 |
| 20260506095355 | 44 | 244 | 0.0 | 0.0 | 0.00 | 0.60 | 0.60 | 98 | 999.9 |
| 20260506094850 | 44 | 246 | 0.0 | 0.0 | 0.00 | 0.60 | 0.60 | 98 | 999.6 |
| 20260506094349 | 44 | 242 | 0.0 | 0.0 | 0.00 | 0.60 | 0.60 | 98 | 999.5 |
| 20260506093847 | 44 | 241 | 0.0 | 0.0 | 0.07 | 0.60 | 0.60 | 98 | 999.6 |
| 20260506093344 | 44 | 257 | 0.9 | 0.9 | 0.07 | 0.60 | 0.60 | 98 | 1000.0 |
| 20260506092842 | 44 | 233 | 0.0 | 0.0 | 0.00 | 0.59 | 0.59 | 98 | 1000.2 |
| 20260506092340 | 44 | 243 | 0.0 | 0.0 | 0.00 | 0.59 | 0.59 | 98 | 1000.5 |
| 20260506091836 | 44 | 247 | 0.0 | 0.0 | 0.05 | 0.59 | 0.59 | 98 | 1000.2 |
| 20260506091334 | 44 | 250 | 0.9 | 1.7 | 0.05 | 0.59 | 0.59 | 97 | 1000.4 |
| 20260506090831 | 44 | 254 | 0.0 | 0.0 | 0.00 | 0.58 | 0.58 | 97 | 1000.3 |
| 20260506090328 | 44 | 290 | 1.7 | 2.6 | 0.00 | 0.58 | 0.58 | 97 | 1000.4 |
| 20260506085825 | 44 | 254 | 0.0 | 0.9 | 0.07 | 0.58 | 0.58 | 97 | 1000.4 |
| 20260506085321 | 44 | 263 | 0.9 | 0.9 | 0.12 | 0.58 | 0.58 | 97 | 1000.3 |
| 20260506084818 | 44 | 287 | 0.0 | 0.9 | 0.05 | 0.57 | 0.57 | 97 | 1000.4 |
| 20260506084315 | 44 | 245 | 0.0 | 0.9 | 0.07 | 0.56 | 0.56 | 97 | 1000.7 |
| 20260506083811 | 44 | 255 | 0.9 | 0.9 | 0.07 | 0.56 | 0.56 | 97 | 1000.6 |
| 20260506083309 | 44 | 242 | 0.0 | 0.0 | 0.00 | 0.55 | 0.55 | 97 | 1000.4 |
| 20260506082806 | 44 | 249 | 0.0 | 0.0 | 0.00 | 0.55 | 0.55 | 97 | 1000.6 |
| 20260506082304 | 44 | 251 | 0.0 | 0.0 | 0.00 | 0.55 | 0.55 | 97 | 1000.6 |
| 20260506081759 | 44 | 277 | 1.7 | 1.7 | 0.07 | 0.55 | 0.55 | 97 | 1000.6 |
| 20260506081257 | 44 | 358 | 3.5 | 4.3 | 0.07 | 0.55 | 0.55 | 97 | 1000.2 |
| 20260506080755 | 44 | 256 | 0.9 | 0.9 | 0.05 | 0.54 | 0.54 | 97 | 1000.3 |
| 20260506080251 | 44 | 338 | 2.6 | 4.3 | 0.12 | 0.54 | 0.54 | 97 | 1000.2 |
| 20260506073235 | 44 | 287 | 2.6 | 2.6 | 0.17 | 0.50 | 0.50 | 97 | 1000.2 |
| 20260506072731 | 44 | 247 | 0.9 | 1.7 | 0.19 | 0.49 | 0.49 | 97 | 1000.2 |
| 20260506072229 | 44 | 297 | 1.7 | 1.7 | 0.19 | 0.47 | 0.47 | 97 | 999.8 |
| 20260506071727 | 44 | 250 | 2.6 | 2.6 | 0.17 | 0.46 | 0.46 | 97 | 1000.2 |
| 20260506071224 | 44 | 234 | 0.9 | 0.9 | 0.19 | 0.44 | 0.44 | 97 | 1000.1 |
| 20260506070721 | 44 | 271 | 1.7 | 1.7 | 0.26 | 0.43 | 0.43 | 97 | 1000.0 |
| 20260506070218 | 45 | 248 | 0.9 | 0.9 | 0.17 | 0.41 | 0.41 | 97 | 1000.1 |
| 20260506062155 | 48 | 245 | 0.0 | 0.0 | 0.17 | 0.28 | 0.28 | 98 | 999.5 |
| 20260506061651 | 48 | 247 | 0.9 | 1.7 | 0.19 | 0.27 | 0.27 | 98 | 999.5 |
| 20260506061148 | 48 | 256 | 0.9 | 0.9 | 0.19 | 0.25 | 0.25 | 98 | 999.7 |
| 20260506060647 | 48 | 246 | 0.0 | 0.0 | 0.17 | 0.24 | 0.24 | 98 | 999.8 |
| 20260506060143 | 48 | 272 | 0.9 | 1.7 | 0.17 | 0.22 | 0.22 | 98 | 999.7 |
| 20260506051115 | 49 | 269 | 0.9 | 1.7 | 0.00 | 0.05 | 0.05 | 98 | 1000.1 |
| 20260506050614 | 49 | 261 | 1.7 | 1.7 | 0.00 | 0.05 | 0.05 | 98 | 1000.4 |
| 20260506050111 | 49 | 254 | 0.9 | 0.9 | 0.00 | 0.05 | 0.05 | 98 | 1000.3 |
| 20260506045104 | 49 | 264 | 0.9 | 0.9 | 0.07 | 0.05 | 0.05 | 98 | 1000.3 |
| 20260506044602 | 49 | 282 | 0.9 | 1.7 | 0.05 | 0.04 | 0.04 | 98 | 1000.2 |
| 20260506044058 | 49 | 245 | 0.9 | 0.9 | 0.05 | 0.04 | 0.04 | 98 | 1000.4 |
| 20260506043556 | 49 | 319 | 2.6 | 2.6 | 0.07 | 0.03 | 0.03 | 98 | 1000.4 |
| 20260506043054 | 49 | 331 | 2.6 | 2.6 | 0.07 | 0.03 | 0.03 | 98 | 1000.6 |
| 20260506042553 | 49 | 264 | 0.0 | 0.0 | 0.05 | 0.02 | 0.02 | 98 | 1000.4 |
| 20260506042050 | 49 | 289 | 0.9 | 1.7 | 0.05 | 0.02 | 0.02 | 98 | 1000.4 |
| 20260506041549 | 49 | 252 | 0.0 | 0.0 | 0.07 | 0.01 | 0.01 | 98 | 1000.4 |
| 20260506041045 | 49 | 276 | 1.7 | 1.7 | 0.07 | 0.01 | 0.01 | 98 | 1000.4 |
| 20260506040543 | 49 | 242 | 0.0 | 0.0 | 0.12 | 0.01 | 0.01 | 98 | 1000.5 |
| 20260506040039 | 49 | 284 | 1.7 | 1.7 | 0.12 | 0.00 | 0.00 | 98 | 1000.6 |
| 20260506035536 | 49 | 264 | 0.0 | 0.9 | 0.12 | 1.02 | 1.02 | 98 | 1000.9 |
| 20260506035033 | 49 | 246 | 0.0 | 0.0 | 0.12 | 1.01 | 1.01 | 98 | 1001.0 |
| 20260506034530 | 49 | 244 | 0.0 | 0.0 | 0.19 | 1.00 | 1.00 | 98 | 1001.0 |
| 20260506034027 | 49 | 243 | 0.0 | 0.0 | 0.24 | 0.99 | 0.99 | 98 | 1000.9 |
| 20260506033524 | 49 | 244 | 0.0 | 0.0 | 0.19 | 0.97 | 0.97 | 98 | 1000.9 |
| 20260506033021 | 49 | 229 | 1.7 | 1.7 | 0.12 | 0.95 | 0.95 | 98 | 1001.2 |
| 20260506032519 | 50 | 288 | 0.9 | 0.9 | 0.12 | 0.94 | 0.94 | 98 | 1001.1 |
| 20260506032015 | 50 | 299 | 1.7 | 1.7 | 0.12 | 0.93 | 0.93 | 98 | 1001.1 |
| 20260506031513 | 50 | 237 | 0.9 | 1.7 | 0.12 | 0.92 | 0.92 | 98 | 1001.2 |
| 20260506031009 | 51 | 256 | 0.9 | 0.9 | 0.12 | 0.91 | 0.91 | 98 | 1000.7 |
| 20260506030508 | 51 | 251 | 0.9 | 0.9 | 0.12 | 0.90 | 0.90 | 98 | 1000.9 |
| 20260506030005 | 51 | 256 | 0.9 | 0.9 | 0.12 | 0.89 | 0.89 | 98 | 1000.7 |
| 20260506025501 | 51 | 248 | 0.0 | 0.0 | 0.12 | 0.88 | 0.88 | 98 | 1000.7 |
| 20260506024957 | 51 | 251 | 0.9 | 0.9 | 0.19 | 0.87 | 0.87 | 98 | 1000.7 |
| 20260506024454 | 51 | 250 | 0.0 | 0.0 | 0.12 | 0.86 | 0.86 | 98 | 1000.6 |
| 20260506023950 | 51 | 251 | 0.9 | 0.9 | 0.12 | 0.84 | 0.84 | 98 | 1001.0 |
| 20260506023447 | 51 | 250 | 0.0 | 0.0 | 0.12 | 0.84 | 0.84 | 98 | 1000.9 |
| 20260506022944 | 51 | 252 | 0.0 | 0.9 | 0.14 | 0.83 | 0.83 | 98 | 1001.0 |
| 20260506022442 | 51 | 250 | 0.9 | 0.9 | 0.07 | 0.82 | 0.82 | 98 | 1000.9 |
| 20260506021940 | 51 | 248 | 0.0 | 0.0 | 0.05 | 0.81 | 0.81 | 98 | 1000.7 |
| 20260506021436 | 51 | 250 | 0.9 | 0.9 | 0.05 | 0.81 | 0.81 | 98 | 1001.0 |
| 20260506020933 | 51 | 245 | 1.7 | 1.7 | 0.00 | 0.80 | 0.80 | 98 | 1001.1 |
| 20260506020431 | 52 | 243 | 0.9 | 1.7 | 0.07 | 0.80 | 0.80 | 98 | 1000.9 |
| 20260506015928 | 52 | 343 | 2.6 | 4.3 | 0.05 | 0.79 | 0.79 | 98 | 1000.7 |
| 20260506015426 | 53 | 248 | 0.9 | 0.9 | 0.05 | 0.79 | 0.79 | 98 | 1000.9 |
| 20260506014922 | 53 | 201 | 0.9 | 1.7 | 0.07 | 0.78 | 0.78 | 98 | 1000.7 |
| 20260506014420 | 53 | 263 | 1.7 | 1.7 | 0.12 | 0.78 | 0.78 | 98 | 1000.5 |
| 20260506013916 | 53 | 250 | 0.0 | 0.9 | 0.17 | 0.77 | 0.77 | 98 | 1000.7 |
| 20260506013414 | 56 | 301 | 4.3 | 6.1 | 0.24 | 0.76 | 0.76 | 97 | 1000.5 |
| 20260506012910 | 57 | 257 | 0.9 | 0.9 | 0.35 | 0.75 | 0.75 | 98 | 1000.4 |
| 20260506012407 | 57 | 250 | 0.9 | 0.9 | 0.38 | 0.72 | 0.72 | 98 | 1000.4 |
| 20260506011904 | 57 | 247 | 0.0 | 0.0 | 0.54 | 0.69 | 0.69 | 98 | 999.9 |
| 20260506011401 | 57 | 248 | 0.0 | 0.0 | 0.50 | 0.65 | 0.65 | 98 | 999.9 |
| 20260506010858 | 57 | 246 | 0.0 | 0.0 | 0.31 | 0.60 | 0.60 | 98 | 999.7 |
| 20260506010356 | 57 | 246 | 0.0 | 0.0 | 0.24 | 0.57 | 0.57 | 97 | 999.6 |
| 20260506005853 | 57 | 245 | 0.0 | 0.0 | 0.17 | 0.55 | 0.55 | 97 | 999.8 |
| 20260506005350 | 57 | 245 | 0.0 | 0.0 | 0.05 | 0.53 | 0.53 | 97 | 999.9 |
| 20260506004845 | 57 | 247 | 0.0 | 0.0 | 0.07 | 0.52 | 0.52 | 97 | 999.8 |
| 20260506004343 | 57 | 242 | 0.0 | 0.0 | 0.12 | 0.51 | 0.51 | 97 | 999.7 |
| 20260506003839 | 57 | 246 | 0.0 | 0.0 | 0.12 | 0.51 | 0.51 | 97 | 999.9 |
| 20260506003336 | 57 | 248 | 0.0 | 0.0 | 0.00 | 0.49 | 0.49 | 97 | 999.9 |
| 20260506002832 | 57 | 245 | 0.0 | 0.0 | 0.05 | 0.49 | 0.49 | 97 | 1000.0 |
| 20260506002329 | 57 | 239 | 0.9 | 0.9 | 0.12 | 0.49 | 0.49 | 97 | 999.7 |
| 20260506001824 | 58 | 246 | 0.0 | 0.0 | 0.12 | 0.48 | 0.48 | 97 | 999.6 |
| 20260506001322 | 58 | 248 | 1.7 | 1.7 | 0.24 | 0.47 | 0.47 | 97 | 999.8 |
| 20260506000818 | 58 | 236 | 0.0 | 0.9 | 0.26 | 0.46 | 0.46 | 97 | 999.9 |
| 20260506000316 | 58 | 248 | 0.0 | 0.0 | 0.12 | 0.43 | 0.43 | 97 | 999.8 |
| 20260505235813 | 58 | 246 | 0.0 | 0.0 | 0.12 | 0.42 | 0.42 | 97 | 1000.1 |
| 20260505235310 | 58 | 247 | 0.0 | 0.0 | 0.12 | 0.41 | 0.41 | 97 | 999.8 |
| 20260505234807 | 58 | 245 | 0.9 | 0.9 | 0.12 | 0.40 | 0.40 | 97 | 999.9 |
| 20260505234305 | 58 | 242 | 0.9 | 0.9 | 0.05 | 0.38 | 0.38 | 97 | 1000.0 |
| 20260505233802 | 58 | 247 | 0.0 | 0.0 | 0.05 | 0.38 | 0.38 | 97 | 1000.0 |
| 20260505233259 | 58 | 245 | 0.0 | 0.0 | 0.00 | 0.37 | 0.37 | 96 | 1000.1 |
| 20260505232756 | 58 | 250 | 0.0 | 0.0 | 0.00 | 0.37 | 0.37 | 96 | 999.9 |
| 20260505232254 | 58 | 245 | 0.0 | 0.0 | 0.07 | 0.37 | 0.37 | 96 | 1000.1 |
| 20260505231750 | 58 | 240 | 0.0 | 0.0 | 0.07 | 0.37 | 0.37 | 96 | 1000.1 |
| 20260505231249 | 58 | 249 | 0.0 | 0.0 | 0.00 | 0.36 | 0.36 | 96 | 1000.2 |
| 20260505230747 | 58 | 249 | 0.0 | 0.0 | 0.05 | 0.36 | 0.36 | 96 | 1000.1 |
| 20260505230243 | 58 | 249 | 0.0 | 0.0 | 0.05 | 0.36 | 0.36 | 96 | 1000.1 |
| 20260505225740 | 58 | 246 | 0.0 | 0.0 | 0.07 | 0.35 | 0.35 | 96 | 1000.1 |
| 20260505225237 | 58 | 246 | 0.0 | 0.0 | 0.07 | 0.35 | 0.35 | 96 | 1000.3 |
| 20260505224732 | 58 | 244 | 0.0 | 0.0 | 0.19 | 0.34 | 0.34 | 96 | 1000.1 |
| 20260505224230 | 58 | 244 | 0.0 | 0.0 | 0.24 | 0.34 | 0.34 | 95 | 1000.3 |
| 20260505223727 | 59 | 244 | 0.9 | 0.9 | 0.24 | 0.32 | 0.32 | 95 | 1000.3 |
| 20260505223224 | 59 | 243 | 0.0 | 0.9 | 0.35 | 0.30 | 0.30 | 95 | 1000.5 |
| 20260505222720 | 59 | 249 | 0.0 | 0.9 | 1.02 | 0.28 | 0.28 | 94 | 1000.6 |
| 20260505222216 | 59 | 246 | 0.9 | 0.9 | 1.09 | 0.23 | 0.23 | 93 | 1000.4 |
| 20260505221713 | 59 | 262 | 1.7 | 1.7 | 0.38 | 0.11 | 0.11 | 93 | 1000.4 |
| 20260505221210 | 60 | 258 | 0.9 | 1.7 | 0.12 | 0.06 | 0.06 | 92 | 1000.4 |
| 20260505220707 | 60 | 249 | 0.0 | 0.0 | 0.05 | 0.05 | 0.05 | 91 | 1000.0 |
| 20260505220205 | 60 | 246 | 0.0 | 0.0 | 0.07 | 0.04 | 0.04 | 91 | 999.9 |
| 20260505215702 | 61 | 252 | 0.0 | 0.9 | 0.12 | 0.04 | 0.04 | 89 | 999.8 |
| 20260505215200 | 62 | 251 | 0.0 | 0.0 | 0.05 | 0.03 | 0.03 | 88 | 999.7 |
| 20260505214657 | 62 | 247 | 0.0 | 0.0 | 0.00 | 0.02 | 0.02 | 86 | 999.6 |
| 20260505214154 | 62 | 248 | 0.9 | 0.9 | 0.00 | 0.02 | 0.02 | 86 | 999.5 |
| 20260505213652 | 62 | 251 | 0.0 | 0.0 | 0.00 | 0.02 | 0.02 | 86 | 999.6 |
| 20260505213149 | 63 | 251 | 0.9 | 0.9 | 0.00 | 0.02 | 0.02 | 85 | 999.6 |
| 20260505212644 | 63 | 257 | 0.9 | 0.9 | 0.00 | 0.02 | 0.02 | 84 | 999.8 |
| 20260505212142 | 63 | 252 | 0.0 | 0.0 | 0.00 | 0.02 | 0.02 | 85 | 999.7 |
| 20260505211639 | 63 | 270 | 0.9 | 0.9 | 0.00 | 0.02 | 0.02 | 84 | 999.7 |
| 20260505211136 | 63 | 251 | 0.0 | 0.0 | 0.00 | 0.02 | 0.02 | 84 | 999.9 |
| 20260505210633 | 63 | 288 | 1.7 | 1.7 | 0.00 | 0.02 | 0.02 | 84 | 999.7 |
| 20260505210130 | 63 | 255 | 0.9 | 1.7 | 0.00 | 0.02 | 0.02 | 83 | 999.8 |
| 20260505205627 | 64 | 247 | 0.9 | 0.9 | 0.00 | 0.02 | 0.02 | 82 | 999.9 |
| 20260505205125 | 64 | 244 | 0.0 | 0.0 | 0.00 | 0.02 | 0.02 | 82 | 999.8 |
| 20260505204622 | 64 | 247 | 0.0 | 0.0 | 0.00 | 0.02 | 0.02 | 82 | 1000.0 |
| 20260505204119 | 64 | 247 | 0.0 | 0.0 | 0.00 | 0.02 | 0.02 | 82 | 999.9 |
| 20260505203616 | 65 | 250 | 0.9 | 0.9 | 0.00 | 0.02 | 0.02 | 81 | 1000.0 |
| 20260505203113 | 64 | 252 | 0.9 | 0.9 | 0.00 | 0.02 | 0.02 | 81 | 1000.0 |
| 20260505202609 | 64 | 245 | 0.9 | 0.9 | 0.00 | 0.02 | 0.02 | 81 | 1000.0 |
| 20260505202105 | 64 | 245 | 0.9 | 0.9 | 0.00 | 0.02 | 0.02 | 81 | 1000.0 |
| 20260505201602 | 64 | 254 | 0.9 | 0.9 | 0.00 | 0.02 | 0.02 | 80 | 1000.0 |
| 20260505201059 | 64 | 245 | 0.0 | 0.9 | 0.00 | 0.02 | 0.02 | 78 | 1000.3 |
| 20260505200557 | 64 | 248 | 1.7 | 1.7 | 0.00 | 0.02 | 0.02 | 77 | 1000.1 |
| 20260505200054 | 65 | 248 | 1.7 | 1.7 | 0.00 | 0.02 | 0.02 | 77 | 1000.0 |
| 20260505195550 | 65 | 250 | 0.0 | 0.0 | 0.00 | 0.02 | 0.02 | 76 | 1000.3 |
| 20260505195048 | 65 | 248 | 0.0 | 0.9 | 0.00 | 0.02 | 0.02 | 76 | 1000.2 |
| 20260505194545 | 65 | 239 | 0.9 | 0.9 | 0.00 | 0.02 | 0.02 | 75 | 1000.3 |
| 20260505194040 | 65 | 242 | 1.7 | 1.7 | 0.00 | 0.02 | 0.02 | 74 | 1000.4 |
| 20260505193537 | 65 | 241 | 0.0 | 0.9 | 0.00 | 0.02 | 0.02 | 76 | 1000.4 |
| 20260505193034 | 65 | 242 | 0.0 | 0.0 | 0.00 | 0.02 | 0.02 | 75 | 1000.4 |
| 20260505192533 | 65 | 242 | 0.0 | 0.9 | 0.00 | 0.02 | 0.02 | 74 | 1000.1 |
| 20260505192030 | 65 | 242 | 0.0 | 0.9 | 0.00 | 0.02 | 0.02 | 74 | 1000.2 |
| 20260505191528 | 65 | 243 | 0.0 | 0.0 | 0.00 | 0.02 | 0.02 | 75 | 1000.4 |
| 20260505191026 | 66 | 247 | 0.0 | 0.0 | 0.00 | 0.02 | 0.02 | 73 | 1000.4 |
| 20260505190520 | 67 | 231 | 0.9 | 1.7 | 0.00 | 0.02 | 0.02 | 71 | 1000.1 |
| 20260505190017 | 67 | 246 | 0.0 | 0.0 | 0.00 | 0.02 | 0.02 | 70 | 1000.3 |
| 20260505185514 | 67 | 242 | 0.9 | 0.9 | 0.00 | 0.02 | 0.02 | 68 | 1000.4 |
| 20260505185010 | 68 | 240 | 0.9 | 1.7 | 0.00 | 0.02 | 0.02 | 67 | 1000.3 |
| 20260505184507 | 68 | 250 | 0.0 | 0.9 | 0.00 | 0.02 | 0.02 | 67 | 1000.2 |
| 20260505184004 | 67 | 245 | 0.0 | 0.9 | 0.00 | 0.02 | 0.02 | 68 | 1000.3 |
| 20260505183501 | 67 | 252 | 0.9 | 0.9 | 0.00 | 0.02 | 0.02 | 69 | 1000.5 |
| 20260505182957 | 67 | 233 | 1.7 | 1.7 | 0.00 | 0.02 | 0.02 | 68 | 1000.4 |
| 20260505182454 | 67 | 252 | 0.9 | 0.9 | 0.00 | 0.02 | 0.02 | 69 | 1000.7 |
| 20260505181950 | 67 | 240 | 0.9 | 0.9 | 0.00 | 0.02 | 0.02 | 67 | 1000.9 |
| 20260505181448 | 67 | 242 | 0.9 | 0.9 | 0.00 | 0.02 | 0.02 | 67 | 1000.6 |
| 20260505180945 | 68 | 232 | 2.6 | 2.6 | 0.00 | 0.02 | 0.02 | 66 | 1000.9 |
| 20260505180441 | 68 | 245 | 2.6 | 2.6 | 0.00 | 0.02 | 0.02 | 67 | 1000.7 |
| 20260505175938 | 69 | 241 | 1.7 | 1.7 | 0.00 | 0.02 | 0.02 | 66 | 1000.9 |
| 20260505175434 | 69 | 239 | 0.9 | 1.7 | 0.00 | 0.02 | 0.02 | 67 | 1000.7 |
| 20260505174930 | 68 | 233 | 1.7 | 2.6 | 0.00 | 0.02 | 0.02 | 67 | 1000.7 |
| 20260505174428 | 67 | 226 | 1.7 | 2.6 | 0.00 | 0.02 | 0.02 | 69 | 1000.7 |
| 20260505173924 | 67 | 241 | 1.7 | 1.7 | 0.00 | 0.02 | 0.02 | 69 | 1000.7 |
| 20260505173420 | 67 | 240 | 2.6 | 4.3 | 0.00 | 0.02 | 0.02 | 69 | 1001.1 |
| 20260505172918 | 67 | 267 | 2.6 | 4.3 | 0.00 | 0.02 | 0.02 | 69 | 1001.0 |
| 20260505172416 | 67 | 266 | 0.9 | 1.7 | 0.00 | 0.02 | 0.02 | 71 | 1000.9 |
| 20260505171915 | 67 | 244 | 2.6 | 4.3 | 0.00 | 0.02 | 0.02 | 69 | 1001.0 |
| 20260505171412 | 67 | 232 | 2.6 | 2.6 | 0.00 | 0.02 | 0.02 | 69 | 1000.7 |
| 20260505170909 | 67 | 242 | 4.3 | 5.2 | 0.00 | 0.02 | 0.02 | 68 | 1001.0 |
| 20260505170406 | 66 | 250 | 3.5 | 5.2 | 0.00 | 0.02 | 0.02 | 70 | 1001.0 |
| 20260505165901 | 67 | 252 | 0.9 | 1.7 | 0.00 | 0.02 | 0.02 | 70 | 1001.3 |
| 20260505165356 | 67 | 249 | 0.9 | 1.7 | 0.00 | 0.02 | 0.02 | 68 | 1001.2 |
| 20260505164852 | 68 | 257 | 1.7 | 1.7 | 0.00 | 0.02 | 0.02 | 68 | 1001.2 |
| 20260505164349 | 67 | 248 | 2.6 | 4.3 | 0.00 | 0.02 | 0.02 | 67 | 1001.1 |
| 20260505163847 | 68 | 245 | 2.6 | 2.6 | 0.00 | 0.02 | 0.02 | 68 | 1001.1 |
| 20260505163346 | 68 | 242 | 0.9 | 1.7 | 0.00 | 0.02 | 0.02 | 67 | 1001.1 |
| 20260505162844 | 69 | 219 | 6.1 | 8.7 | 0.00 | 0.02 | 0.02 | 66 | 1001.2 |
| 20260505162340 | 69 | 276 | 2.6 | 4.3 | 0.00 | 0.02 | 0.02 | 66 | 1001.1 |
| 20260505161837 | 68 | 245 | 0.9 | 1.7 | 0.00 | 0.02 | 0.02 | 67 | 1001.1 |
| 20260505161334 | 69 | 242 | 0.9 | 0.9 | 0.00 | 0.02 | 0.02 | 65 | 1000.9 |
| 20260505160831 | 69 | 222 | 3.5 | 5.2 | 0.00 | 0.02 | 0.02 | 65 | 1000.9 |
| 20260505160329 | 69 | 225 | 3.5 | 5.2 | 0.00 | 0.02 | 0.02 | 65 | 1000.6 |